Regional Weather Roundup
Issued by NWS

Home | Current Version | Previous Version | Graphics & Text | Print | Product List | Glossary On
Versions: 1 2 3 4 5 6 7 8 9 10 11 12 13 14 15 16 17 18 19 20 21 22 23 24 25 26 27 28 29 30 31 32 33 34 35 36 37 38 39 40 41 42 43 44 45 46 47 48 49 50
000
ASUS44 KMEG 100610
RWRTN
TENNESSEE HOURLY STATE WEATHER ROUNDUP
NATIONAL WEATHER SERVICE MEMPHIS TN
1200 AM CST SUN DEC 10 2017

TNZ002-004-019-021-049-052-054-088>092-100700-
WEST TENNESSEE

CITY           SKY/WX    TMP DP  RH WIND       PRES   REMARKS
MEMPHIS INTL   CLEAR     31  24  75 CALM      30.26S
NWS MEMPHIS      N/A     27 N/A N/A MISG        N/A
JACKSON        CLEAR     22  20  92 CALM      30.26R
DYERSBURG      CLEAR     25  23  92 N5        30.26R WCI  19
SOMERVILLE     CLEAR     25  23  93 CALM      30.24S
COVINGTON      CLEAR     25  23  93 CALM      30.26S
UNION CITY     CLEAR     25  19  80 CALM      30.26R
BOLIVAR        CLEAR     23  21  93 CALM      30.25R
PARIS          PTCLDY    21  18  86 CALM      30.24R
HUNTINGDON     PTCLDY    21  19  93 CALM      30.24R
LEXINGTON      CLEAR     23  21  93 CALM      30.25R
SAVANNAH       CLEAR     23  21  93 CALM      30.25R
$$

TNZ008-025-027-028-033-062-065-066-100700-
NORTH MIDDLE TENNESSEE

CITY           SKY/WX    TMP DP  RH WIND       PRES   REMARKS
NASHVILLE      CLEAR     32  18  56 NW7       30.23R WCI  26
PORTLAND       PTCLDY    28  18  64 N7        30.19R WCI  21
CLARKSVILLE    PTCLDY    28  15  58 W5        30.23R WCI  23
SMYRNA         CLEAR     27  19  72 NW3       30.23S
COOKEVILLE     CLOUDY    32  18  55 CALM      30.17R
GALLATIN       PTCLDY    30  18  59 NW3       30.24R
CROSSVILLE     CLOUDY    28  15  58 NW10G17   30.13R WCI  19
$$

TNZ061-075-076-078-094-096-097-100700-
SOUTH MIDDLE TENNESSEE

CITY           SKY/WX    TMP DP  RH WIND       PRES   REMARKS
FAYETTEVILLE   CLEAR     27  21  80 CALM      30.20R
TULLAHOMA      PTCLDY    23  18  80 CALM      30.19R
WINCHESTER     CLEAR     27  18  69 CALM      30.20R
MCMINNVILLE    CLEAR     27  19  74 CALM      30.18S
COLUMBIA       CLEAR     23  21  93 CALM      30.21R
SHELBYVILLE    CLEAR     23  19  86 S5        30.21R WCI  17
$$

TNZ017-018-042-046-047-100700-
NORTHEAST TENNESSEE

CITY           SKY/WX    TMP DP  RH WIND       PRES   REMARKS
TRI CITIES     CLOUDY    29  25  85 W13       30.07R WCI  19
ELIZABETHTON   CLOUDY    28  23  80 W7        30.06R WCI  21
$$

TNZ012-013-036-069-073-074-100700-
CENTRAL EAST TENNESSEE

CITY           SKY/WX    TMP DP  RH WIND       PRES   REMARKS
KNOXVILLE      CLOUDY    33  22  63 W8        30.15R WCI  26
OAK RIDGE      CLOUDY    33  17  51 W6        30.17R WCI  28
DOWNTOWN KNOXV CLOUDY    34  23  64 W7        30.17R WCI  28
GATLINBURG     CLOUDY    32  23  69 W6        30.14S WCI  26
MORRISTOWN     CLOUDY    32  19  59 NW10      30.11R WCI  24
JACKSBORO      CLOUDY    32  18  55 VRB5      30.18R WCI  27
$$

TNZ083-085-099-100700-
SOUTHEAST TENNESSEE

CITY           SKY/WX    TMP DP  RH WIND       PRES   REMARKS
CHATTANOOGA    PTCLDY    33  17  51 NW9       30.20S WCI  25
DAYTON         CLOUDY    34  21  60 NW3       30.18S
$$

SKY/WX REPORTED AS FAIR MEANS FEW OR NO CLOUDS BELOW
12 THOUSAND FEET.





USA.gov is the U.S. government's official web portal to all federal, state and local government web resources and services.